Vorticity
10 10 29 14 8 5 46 4 -2 10 23 -1 15 4 30 9 11 3 0 19 9 4 7 7 15 9 4 7 6 15 20 5 3 8 9 4 7 10 6 12 9 14 17 14
6 18 24 11 7 3 42 17 13 5 25 17 25 12 -14 9 14 10 14 9 9 10 6 16 11 6 -7 10 21 10 17 20 11 11 12 15 10 9 9 12 14 13 12 11
7 24 18 8 11 5 42 20 -1 1 0 5 6 24 -1 27 6 15 11 13 8 12 10 8 14 9 6 -3 13 9 7 8 8 12 12 14 13 14 14 12 13 10 8 10
10 28 11 8 11 8 56 9 13 3 -0 28 9 7 -7 18 12 14 1 6 7 7 12 11 7 9 10 15 5 13 10 11 12 17 12 15 15 15 15 14 11 8 7 7
12 26 16 9 11 8 31 12 5 7 7 15 13 5 10 4 19 7 6 9 12 15 12 16 8 -0 26 6 5 9 10 11 8 8 7 10 10 10 10 9 9 6 5 6
11 25 15 7 3 8 28 7 15 4 13 13 19 9 4 11 5 4 3 3 8 11 11 8 9 23 4 10 8 8 10 8 9 9 9 7 6 7 6 7 8 9 8 5
12 26 12 9 5 11 20 19 9 5 7 7 18 14 16 15 8 12 -2 1 13 4 9 20 14 7 12 11 9 5 4 6 9 7 7 6 6 8 11 10 10 11 11 11
13 25 14 9 8 13 9 37 -0 9 5 5 -1 4 18 15 17 11 1 6 6 6 11 21 6 0 12 11 11 10 7 9 9 8 8 7 11 8 8 6 11 10 8 10
13 28 24 3 13 8 17 19 12 1 0 3 6 6 5 11 14 16 22 17 12 12 19 26 7 12 5 10 10 9 8 8 9 9 8 9 6 9 7 8 9 9 10 12
5 6 23 14 1 15 13 10 25 0 5 -10 -0 -7 14 5 7 8 8 9 12 7 5 18 9 6 8 5 6 7 8 7 7 6 6 5 6 9 12 10 4 9 10 9
5 10 25 20 9 2 13 19 21 18 14 9 4 1 0 3 8 7 9 13 9 7 8 13 12 13 10 5 5 5 3 2 3 3 3 4 2 5 8 9 11 9 13 7
9 7 23 24 12 9 4 13 19 25 5 2 1 12 10 -2 14 11 6 4 5 8 7 10 14 12 13 10 12 13 14 10 11 8 10 8 10 12 7 5 12 13 9 6
7 9 12 14 34 9 8 1 21 14 20 -1 -11 12 11 10 7 10 14 2 7 7 10 12 12 16 15 11 12 13 14 11 10 8 11 10 11 11 11 13 9 15 11 6
4 1 15 13 28 11 9 11 4 21 16 19 4 5 -1 5 15 2 4 7 3 5 10 10 6 6 7 10 13 12 11 11 13 10 10 11 13 13 13 12 12 12 8 4
6 13 11 23 11 24 20 21 19 13 11 14 11 1 -4 -4 8 10 9 3 6 5 3 2 1 1 3 4 6 6 10 13 14 8 9 11 13 14 12 13 11 13 14 5
3 8 15 11 24 18 17 20 21 19 30 15 28 -3 0 2 6 -5 5 3 11 11 6 -1 6 3 3 4 10 7 7 11 11 15 8 5 13 14 12 14 10 11 9 8
11 8 19 16 19 16 20 18 18 17 18 12 27 13 11 8 13 13 1 19 1 2 10 5 8 6 3 3 21 8 8 14 12 13 13 5 7 17 12 12 12 10 11 7
10 18 14 20 17 19 23 22 24 21 19 23 29 23 -4 4 2 -0 4 5 10 16 11 9 5 6 12 17 16 15 13 13 18 15 6 4 5 13 14 12 10 14 9 9
7 26 25 31 29 36 33 36 43 34 27 21 18 9 5 9 9 8 11 19 12 6 4 15 10 14 16 10 16 15 10 7 13 14 7 4 9 11 18 14 11 12 13 7
29 32 25 33 41 48 58 54 21 8 11 20 6 3 2 0 17 29 11 12 3 7 25 9 8 23 10 10 12 31 25 18 13 5 6 13 13 14 18 14 10 13 10 9
40 15 30 21 -1 -10 1 3 14 10 20 11 8 1 -2 28 11 12 9 6 20 22 4 17 18 16 17 16 10 4 12 20 19 15 11 7 9 16 14 18 11 15 9 9
37 10 -10 -5 4 15 14 8 8 21 5 5 13 25 10 7 12 18 18 18 14 3 14 15 14 11 14 16 20 16 10 20 18 14 18 21 13 15 14 18 10 16 12 5
16 29 6 6 4 6 12 13 12 10 -2 19 8 -2 5 4 14 14 17 13 6 13 13 11 11 5 17 23 17 12 18 3 -10 9 10 20 22 13 16 18 10 15 18 3
1 37 20 7 6 4 7 7 1 7 12 11 3 10 11 6 11 5 16 14 7 8 7 10 10 14 15 25 32 27 20 16 17 19 20 22 16 17 13 16 19 5 23 7
0 16 34 8 4 6 -0 8 6 7 14 4 0 5 6 3 8 14 14 19 11 8 12 10 9 8 12 9 9 24 23 16 15 18 16 10 10 6 10 15 15 8 13 17
7 10 26 24 8 3 4 3 4 17 6 5 7 6 9 8 13 9 12 14 17 15 14 9 7 4 3 3 6 11 14 11 11 8 21 14 19 11 6 6 5 12 9 12
4 24 13 30 12 6 5 5 8 12 13 5 6 5 7 9 14 10 8 8 11 12 16 17 17 16 15 15 14 12 13 21 22 16 8 12 8 0 5 11 11 14 8 10
Height
5602 5595 5588 5583 5578 5572 5566 5565 5565 5562 5558 5556 5554 5552 5550 5549 5550 5550 5550 5554 5557 5560 5562 5564 5569 5573 5576 5581 5584 5588 5592 5597 5601 5606 5610 5614 5619 5623 5627 5631 5637 5639 5643 5648
5599 5592 5587 5582 5578 5572 5566 5565 5565 5564 5561 5560 5558 5557 5556 5556 5555 5556 5557 5559 5560 5563 5566 5570 5572 5576 5580 5584 5587 5590 5594 5599 5603 5607 5611 5614 5617 5621 5624 5629 5632 5636 5640 5644
5597 5590 5586 5582 5577 5572 5566 5566 5566 5565 5563 5562 5562 5561 5561 5560 5560 5561 5563 5565 5566 5568 5569 5572 5575 5578 5582 5586 5589 5592 5596 5599 5603 5608 5610 5613 5615 5618 5622 5626 5630 5634 5636 5639
5594 5589 5585 5581 5577 5571 5567 5566 5566 5565 5564 5562 5563 5563 5564 5564 5564 5565 5566 5568 5570 5572 5573 5575 5578 5580 5584 5587 5590 5593 5597 5599 5603 5606 5609 5611 5614 5617 5621 5624 5628 5631 5633 5636
5591 5587 5583 5580 5577 5571 5567 5566 5566 5565 5565 5564 5562 5564 5564 5565 5566 5567 5569 5570 5572 5574 5575 5577 5579 5581 5584 5587 5591 5593 5596 5600 5603 5606 5608 5610 5613 5616 5620 5623 5626 5628 5632 5632
5588 5584 5581 5578 5575 5572 5567 5566 5566 5566 5567 5565 5564 5563 5564 5566 5567 5570 5571 5572 5573 5574 5577 5578 5580 5583 5586 5589 5591 5593 5596 5599 5603 5606 5608 5610 5614 5615 5618 5622 5624 5626 5628 5630
5584 5580 5578 5575 5573 5571 5568 5566 5566 5567 5568 5567 5565 5565 5565 5566 5567 5570 5572 5573 5575 5576 5577 5578 5581 5584 5587 5589 5592 5594 5597 5600 5603 5605 5607 5609 5611 5613 5616 5618 5621 5623 5625 5627
5579 5576 5574 5572 5570 5568 5567 5565 5566 5566 5567 5568 5568 5567 5567 5567 5568 5570 5572 5574 5575 5576 5577 5578 5581 5584 5587 5589 5592 5594 5597 5599 5602 5604 5606 5608 5609 5611 5613 5615 5618 5620 5622 5624
5574 5571 5570 5568 5566 5564 5564 5563 5564 5565 5566 5568 5569 5568 5568 5569 5569 5571 5572 5573 5574 5576 5576 5578 5580 5584 5586 5589 5591 5593 5596 5598 5601 5602 5604 5605 5608 5609 5611 5613 5615 5617 5619 5620
5568 5566 5565 5563 5562 5560 5560 5559 5560 5562 5563 5565 5567 5568 5569 5570 5570 5571 5572 5573 5575 5576 5577 5578 5580 5583 5585 5588 5590 5592 5594 5596 5599 5600 5602 5604 5605 5607 5608 5611 5615 5614 5615 5617
5562 5559 5558 5557 5556 5555 5554 5554 5555 5557 5559 5560 5563 5566 5568 5569 5571 5571 5572 5574 5575 5576 5577 5579 5580 5582 5584 5586 5588 5590 5592 5594 5596 5598 5599 5602 5603 5605 5607 5609 5609 5611 5612 5614
5556 5553 5550 5548 5547 5547 5547 5548 5548 5550 5553 5556 5557 5561 5564 5567 5569 5571 5572 5574 5575 5576 5577 5577 5578 5580 5582 5583 5585 5587 5590 5591 5592 5595 5596 5597 5598 5601 5602 5604 5606 5608 5610 5611
5548 5545 5543 5540 5538 5538 5539 5540 5541 5543 5546 5549 5553 5556 5559 5562 5566 5568 5570 5572 5573 5574 5575 5576 5577 5578 5579 5581 5582 5584 5585 5587 5588 5590 5592 5593 5594 5596 5598 5600 5602 5604 5606 5608
5539 5537 5534 5531 5529 5528 5528 5530 5531 5534 5537 5540 5547 5550 5554 5558 5562 5565 5567 5569 5570 5572 5573 5574 5575 5576 5577 5578 5580 5581 5582 5584 5584 5585 5587 5589 5590 5591 5593 5596 5598 5600 5602 5604
5530 5528 5524 5521 5519 5518 5519 5520 5522 5524 5529 5532 5538 5544 5548 5553 5557 5561 5563 5565 5567 5569 5570 5571 5573 5573 5575 5575 5577 5577 5579 5580 5581 5581 5583 5584 5585 5586 5588 5590 5592 5595 5598 5600
5522 5518 5514 5510 5508 5507 5508 5510 5513 5515 5519 5523 5529 5537 5542 5548 5552 5555 5558 5561 5563 5565 5566 5568 5569 5568 5569 5572 5573 5573 5573 5574 5575 5575 5578 5580 5580 5582 5584 5585 5587 5590 5592 5595
5513 5508 5503 5499 5496 5495 5497 5500 5503 5505 5509 5514 5520 5529 5537 5543 5547 5552 5554 5556 5558 5561 5562 5563 5564 5564 5561 5565 5569 5567 5566 5568 5569 5570 5573 5575 5576 5577 5579 5581 5582 5584 5587 5590
5505 5499 5494 5489 5486 5484 5485 5487 5490 5495 5501 5506 5514 5523 5533 5538 5544 5547 5549 5551 5553 5556 5557 5558 5557 5558 5557 5560 5561 5558 5559 5561 5562 5564 5566 5568 5570 5571 5573 5575 5577 5579 5582 5584
5499 5492 5486 5481 5477 5474 5473 5475 5479 5486 5496 5502 5512 5522 5530 5534 5538 5541 5544 5546 5548 5550 5551 5551 5551 5552 5552 5553 5552 5552 5553 5555 5557 5558 5560 5562 5563 5565 5567 5569 5571 5573 5576 5579
5495 5490 5485 5480 5475 5473 5474 5477 5484 5491 5498 5506 5515 5521 5527 5532 5534 5537 5540 5541 5543 5544 5546 5544 5545 5547 5547 5547 5546 5546 5546 5547 5550 5552 5553 5555 5557 5558 5561 5563 5566 5568 5570 5573
5494 5492 5490 5486 5484 5485 5487 5490 5493 5498 5504 5509 5515 5521 5525 5529 5531 5533 5535 5536 5537 5539 5541 5540 5541 5541 5541 5540 5540 5540 5540 5540 5542 5544 5546 5548 5550 5552 5555 5557 5559 5562 5565 5568
5493 5492 5493 5492 5491 5491 5493 5495 5499 5503 5508 5512 5516 5520 5523 5526 5528 5529 5530 5531 5532 5534 5535 5535 5536 5536 5535 5535 5534 5534 5535 5535 5537 5538 5539 5541 5544 5546 5548 5551 5553 5556 5559 5562
5490 5490 5492 5493 5494 5494 5496 5498 5502 5506 5509 5513 5516 5520 5522 5524 5525 5525 5526 5527 5529 5530 5531 5532 5532 5532 5530 5529 5528 5528 5529 5530 5531 5533 5534 5536 5538 5541 5543 5545 5548 5551 5553 5556
5486 5487 5489 5491 5492 5495 5497 5500 5503 5506 5509 5512 5515 5518 5520 5522 5523 5523 5523 5524 5526 5527 5528 5529 5529 5528 5527 5525 5524 5524 5525 5526 5527 5528 5530 5531 5534 5536 5539 5541 5543 5546 5548 5550
5481 5482 5484 5487 5490 5493 5496 5499 5502 5504 5507 5510 5513 5515 5517 5519 5520 5521 5521 5522 5523 5524 5526 5527 5527 5527 5526 5525 5524 5523 5522 5523 5525 5526 5527 5529 5531 5533 5535 5537 5539 5541 5543 5544
5475 5478 5479 5481 5485 5489 5492 5495 5499 5501 5504 5506 5509 5511 5514 5515 5517 5518 5519 5519 5520 5522 5523 5524 5525 5525 5525 5525 5524 5524 5523 5523 5523 5524 5525 5527 5528 5530 5531 5533 5535 5536 5538 5540
5468 5471 5471 5473 5476 5480 5485 5489 5493 5496 5499 5502 5505 5508 5510 5512 5513 5515 5516 5517 5518 5518 5519 5521 5521 5522 5522 5522 5522 5522 5522 5522 5522 5522 5524 5524 5525 5527 5528 5529 5531 5532 5533 5534